Hourly Weather Hramyne

Today, 9 May, Sunday

Time Temperature Precipitation Wind Pressure Humidity
00:00 +2°C° 0 mm 5 mps 742 mmHg 90%
01:00 +1°C° 0 mm 6 mps 743 mmHg 90%
02:00 +1°C° 0 mm 6 mps 743 mmHg 90%
03:00 +1°C° 0 mm 5 mps 744 mmHg 90%
04:00 0°C° 0 mm 5 mps 744 mmHg 90%
05:00 0°C° 0 mm 5 mps 745 mmHg 90%
06:00 +2°C° 0 mm 5 mps 745 mmHg 82%
07:00 +3°C° 0 mm 6 mps 746 mmHg 75%
08:00 +5°C° 0 mm 7 mps 746 mmHg 67%
09:00 +6°C° 0 mm 7 mps 747 mmHg 62%
10:00 +8°C° 0 mm 7 mps 747 mmHg 57%
11:00 +9°C° 0 mm 8 mps 747 mmHg 51%
12:00 +9°C° 0 mm 7 mps 748 mmHg 52%
13:00 +9°C° 0 mm 7 mps 748 mmHg 52%
14:00 +9°C° 0 mm 7 mps 748 mmHg 52%
15:00 +9°C° 0 mm 6 mps 749 mmHg 55%
16:00 +9°C° 0 mm 5 mps 749 mmHg 57%
17:00 +9°C° 0 mm 5 mps 749 mmHg 59%
18:00 +8°C° 0 mm 4 mps 750 mmHg 64%
19:00 +6°C° 0 mm 4 mps 750 mmHg 70%
20:00 +4°C° 0 mm 3 mps 751 mmHg 75%
21:00 +4°C° 0 mm 3 mps 751 mmHg 75%
22:00 +3°C° 0 mm 3 mps 751 mmHg 76%
23:00 +3°C° 0 mm 3 mps 752 mmHg 77%

Tomorrow, 10 May, Monday

Time Temperature Precipitation Wind Pressure Humidity
00:00 +3°C° 0 mm 3 mps 752 mmHg 77%
01:00 +2°C° 0 mm 3 mps 752 mmHg 77%
02:00 +2°C° 0 mm 3 mps 752 mmHg 77%
03:00 +2°C° 0 mm 3 mps 753 mmHg 77%
04:00 +2°C° 0 mm 3 mps 753 mmHg 78%
05:00 +2°C° 0 mm 3 mps 753 mmHg 78%
06:00 +4°C° 0 mm 3 mps 753 mmHg 72%
07:00 +7°C° 0 mm 3 mps 753 mmHg 66%
08:00 +8°C° 0 mm 4 mps 753 mmHg 61%
09:00 +10°C° 0 mm 4 mps 753 mmHg 56%
10:00 +10°C° 0 mm 5 mps 753 mmHg 51%
11:00 +12°C° 0 mm 5 mps 753 mmHg 46%
12:00 +13°C° 0 mm 6 mps 753 mmHg 47%
13:00 +13°C° 0 mm 6 mps 752 mmHg 47%
14:00 +13°C° 0 mm 6 mps 752 mmHg 47%
15:00 +13°C° 0 mm 6 mps 752 mmHg 51%
16:00 +13°C° 0 mm 6 mps 752 mmHg 56%
17:00 +13°C° 0 mm 6 mps 751 mmHg 60%
18:00 +10°C° 0 mm 5 mps 751 mmHg 66%
19:00 +8°C° 0 mm 4 mps 751 mmHg 71%
20:00 +6°C° 0 mm 4 mps 752 mmHg 76%
21:00 +6°C° 0 mm 4 mps 751 mmHg 76%
22:00 +6°C° 0 mm 5 mps 751 mmHg 75%
23:00 +6°C° 0 mm 5 mps 750 mmHg 75%

Day after tomorrow, 11 May, Tuesday

Time Temperature Precipitation Wind Pressure Humidity
00:00 +6°C° 0 mm 5 mps 750 mmHg 72%
01:00 +6°C° 0 mm 5 mps 750 mmHg 69%
02:00 +7°C° 0 mm 6 mps 750 mmHg 67%
03:00 +7°C° 0 mm 6 mps 750 mmHg 69%
04:00 +7°C° 0 mm 6 mps 749 mmHg 71%
05:00 +5°C° 0 mm 6 mps 749 mmHg 73%
06:00 +7°C° 0 mm 6 mps 749 mmHg 73%
07:00 +8°C° 0 mm 6 mps 749 mmHg 74%
08:00 +9°C° 0 mm 7 mps 749 mmHg 74%
09:00 +10°C° 0 mm 7 mps 748 mmHg 75%
10:00 +11°C° 0 mm 7 mps 748 mmHg 75%
11:00 +14°C° 0 mm 7 mps 748 mmHg 75%
12:00 +12°C° 0 mm 7 mps 748 mmHg 76%
13:00 +12°C° 0 mm 7 mps 748 mmHg 77%
14:00 +12°C° 0 mm 7 mps 748 mmHg 78%
15:00 +12°C° 0.1 mm 7 mps 749 mmHg 77%
16:00 +13°C° 0.1 mm 6 mps 749 mmHg 75%
17:00 +13°C° 0.1 mm 6 mps 749 mmHg 73%
18:00 +10°C° 0 mm 5 mps 749 mmHg 77%
19:00 +10°C° 0 mm 4 mps 749 mmHg 81%
20:00 +8°C° 0 mm 3 mps 749 mmHg 85%
21:00 +8°C° 0 mm 3 mps 749 mmHg 85%
22:00 +7°C° 0 mm 4 mps 748 mmHg 85%
23:00 +7°C° 0 mm 4 mps 748 mmHg 85%

12 May, Wednesday

Time Temperature Precipitation Wind Pressure Humidity
00:00 +6°C° 0 mm 4 mps 748 mmHg 85%
01:00 +6°C° 0 mm 4 mps 747 mmHg 86%
02:00 +6°C° 0 mm 4 mps 747 mmHg 87%
03:00 +6°C° 0 mm 4 mps 747 mmHg 88%
04:00 +5°C° 0 mm 4 mps 747 mmHg 89%
05:00 +5°C° 0 mm 5 mps 747 mmHg 90%
06:00 +7°C° 0 mm 5 mps 747 mmHg 85%
07:00 +8°C° 0 mm 6 mps 746 mmHg 81%
08:00 +9°C° 0 mm 7 mps 746 mmHg 77%
09:00 +9°C° 0.1 mm 7 mps 746 mmHg 78%
10:00 +9°C° 0.1 mm 7 mps 746 mmHg 79%
11:00 +9°C° 0.1 mm 7 mps 746 mmHg 80%
12:00 +9°C° 0 mm 7 mps 746 mmHg 80%
13:00 +9°C° 0 mm 6 mps 746 mmHg 80%
14:00 +9°C° 0 mm 6 mps 746 mmHg 80%
15:00 +9°C° 0.1 mm 6 mps 746 mmHg 83%
16:00 +9°C° 0.1 mm 6 mps 746 mmHg 85%
17:00 +8°C° 0.1 mm 6 mps 745 mmHg 88%
18:00 +8°C° 0.3 mm 6 mps 745 mmHg 90%
19:00 +8°C° 0.3 mm 6 mps 745 mmHg 92%
20:00 +8°C° 0.3 mm 6 mps 745 mmHg 94%
21:00 +8°C° 0.4 mm 5 mps 744 mmHg 94%
22:00 +8°C° 0.4 mm 5 mps 744 mmHg 94%
23:00 +8°C° 0.4 mm 5 mps 744 mmHg 95%

13 May, Thursday

Time Temperature Precipitation Wind Pressure Humidity
00:00 +8°C° 0.6 mm 5 mps 743 mmHg 95%
01:00 +8°C° 0.6 mm 5 mps 743 mmHg 95%
02:00 +8°C° 0.6 mm 5 mps 743 mmHg 95%
03:00 +8°C° 0.1 mm 4 mps 743 mmHg 95%
04:00 +8°C° 0.1 mm 4 mps 743 mmHg 96%
05:00 +8°C° 0.1 mm 4 mps 743 mmHg 96%
06:00 +10°C° 0 mm 4 mps 743 mmHg 92%
07:00 +10°C° 0 mm 5 mps 743 mmHg 88%
08:00 +12°C° 0 mm 5 mps 743 mmHg 84%
09:00 +13°C° 0 mm 5 mps 743 mmHg 79%
10:00 +14°C° 0 mm 5 mps 743 mmHg 73%
11:00 +15°C° 0 mm 5 mps 743 mmHg 68%
12:00 +16°C° 0 mm 5 mps 743 mmHg 66%
13:00 +18°C° 0 mm 4 mps 743 mmHg 63%
14:00 +18°C° 0 mm 4 mps 743 mmHg 60%
15:00 +18°C° 0.1 mm 3 mps 743 mmHg 65%
16:00 +18°C° 0.1 mm 3 mps 743 mmHg 70%
17:00 +18°C° 0.1 mm 2 mps 743 mmHg 75%
18:00 +17°C° 0.1 mm 2 mps 742 mmHg 79%
19:00 +16°C° 0.1 mm 3 mps 742 mmHg 83%
20:00 +14°C° 0.1 mm 3 mps 742 mmHg 87%
21:00 +14°C° 0.3 mm 3 mps 742 mmHg 88%
22:00 +13°C° 0.3 mm 4 mps 741 mmHg 89%
23:00 +13°C° 0.3 mm 4 mps 741 mmHg 91%

14 May, Friday

Time Temperature Precipitation Wind Pressure Humidity
00:00 +13°C° 1.2 mm 4 mps 741 mmHg 93%
01:00 +13°C° 1.2 mm 3 mps 741 mmHg 95%
02:00 +12°C° 1.2 mm 3 mps 741 mmHg 97%
03:00 +12°C° 0.3 mm 3 mps 741 mmHg 97%
04:00 +12°C° 0.3 mm 3 mps 741 mmHg 97%
05:00 +12°C° 0.3 mm 3 mps 741 mmHg 97%
06:00 +13°C° 0 mm 3 mps 741 mmHg 92%
07:00 +14°C° 0 mm 4 mps 741 mmHg 86%
08:00 +17°C° 0 mm 4 mps 742 mmHg 80%
09:00 +18°C° 0 mm 4 mps 742 mmHg 75%
10:00 +18°C° 0 mm 4 mps 742 mmHg 70%
11:00 +19°C° 0 mm 5 mps 742 mmHg 64%
12:00 +20°C° 0 mm 4 mps 742 mmHg 63%
13:00 +21°C° 0 mm 4 mps 743 mmHg 62%
14:00 +21°C° 0 mm 4 mps 743 mmHg 60%
15:00 +21°C° 0 mm 3 mps 743 mmHg 63%
16:00 +21°C° 0 mm 3 mps 743 mmHg 66%
17:00 +21°C° 0 mm 2 mps 742 mmHg 68%
18:00 +19°C° 0 mm 2 mps 742 mmHg 72%
19:00 +19°C° 0 mm 1 mps 742 mmHg 76%
20:00 +16°C° 0 mm 1 mps 742 mmHg 80%
21:00 +16°C° 0 mm 2 mps 742 mmHg 81%
22:00 +15°C° 0 mm 2 mps 742 mmHg 81%
23:00 +15°C° 0 mm 2 mps 742 mmHg 81%
Show more

We Need Your Consent

Meteoprog and our Service Providers may store and access personal data such as cookies, device identifiers or other similar technologies on your device and process such data to personalise content and ads, as well as provide social media features and to analyse the traffic.

  • Store and/or access information on your device

    Cookies, device identifiers or other information can be stored or accessed on your device for the purposes indicated above.

  • Personalised ads and content, ad and content measurement, audience insights, and products development

    Ads and content can be personalised based on a profile. More data can be added to better personalise ads and content. Ad and content performance can be measured. Insights about the audience who saw the ads and content can be derived. Such data can be used to develop or improve user’s experience, systems and software.

By clicking ‘I Agree’ you will allow the use of indicated cookies, device identifiers, web beacons or other similar technologies. Your settings can be changed in the browser on your device.

For certain purposes, legitimate interests may be relied on, rather than consent. You can read more about this in our Privacy and Cookie Policy.